Flag for Austria Weather past 2 weeks in Gmünd, Lower Austria, Austria

Now
54 °F

Fog.


Feels Like: 53 °F
Forecast: 44 / 50 °F
Wind: 3 mph from North

Location: Retz

Current Time: May 23, 2015 at 4:18:39 PM

Latest Report: May 23, 2015 at 3:00 PM


Visibility: N/A

Pressure: 29.95 "Hg

Humidity: 92%

Dew point: 51 °F

Location of GmündLocation

Historic Weather in Gmünd — Graph

°F

Gmünd temperature yesterday

Maximum temperature yesterday: 62 °F (at 12:00 PM)
Minimum temperature yesterday: 51 °F (at 6:00 AM)
Average temperature yesterday: 56 °F

Past Weeks' High & Low Weather Summary

 TemperatureHumidityPressure
High74 °F (May 12, 5:00 PM)94% (May 21, 2:00 AM)30.41 "Hg (May 21, 2:00 AM)
Low45 °F (May 11, 6:00 AM)26% (May 11, 3:00 PM)29.72 "Hg (May 19, 6:00 AM)
Average59 °F63%30.04 "Hg
* Reported May 8 3:00 PM — May 23 3:00 PM, Gmünd, Weather by CustomWeather, © 2015

Note: Actual official high and low records may vary slightly from our data, if they occured in-between our weather recording intervals... More about our weather records

Advertising

Gmünd weather history for previous 24 hours

 ConditionsComfort  
Time TempWeatherWind HumidityBarometerVisibility
3:00 PM
Sat, May 23
54 °FFog.3 mph92%29.95 "HgN/A
2:00 PM56 °FLight rain. Overcast.2 mph78%29.96 "Hg3 mi
1:00 PM56 °FCool.5 mph73%29.95 "HgN/A
12:00 PM56 °FCool.5 mph71%29.96 "HgN/A
11:00 AM56 °FCool.3 mph74%29.96 "HgN/A
10:00 AM54 °FCool.3 mph82%29.98 "HgN/A
9:00 AM53 °FCool.5 mph86%29.98 "HgN/A
8:00 AM53 °FLight rain. Overcast.3 mph81%29.99 "Hg11 mi
7:00 AM52 °FOvercast.3 mph83%29.99 "Hg11 mi
6:00 AM54 °FCool.5 mph72%29.99 "HgN/A
4:00 AM53 °FCool.5 mph77%30.02 "HgN/A
3:00 AM53 °FCool.5 mph80%30.03 "HgN/A
2:00 AM52 °FCool.3 mph85%30.06 "HgN/A
1:00 AM53 °FCool.3 mph81%30.07 "HgN/A
12:00 AM56 °FCool.6 mph69%30.08 "HgN/A
10:00 PM
Fri, May 22
56 °FCool.5 mph66%30.09 "HgN/A
9:00 PM57 °FCool.5 mph64%30.10 "HgN/A
8:00 PM57 °FOvercast.6 mph64%30.11 "Hg12 mi
7:00 PM57 °FCool.6 mph66%30.11 "HgN/A
6:00 PM58 °FCool.7 mph61%30.12 "HgN/A
5:00 PM58 °FCool.6 mph62%30.13 "HgN/A
4:00 PM59 °FSprinkles. Cloudy.6 mph63%30.15 "HgN/A
Weather by CustomWeather, © 2015

See weather overviewHow to use our weather pages